This is the latest recevied weather packets stored in our database for station/object DG2MCM-11. If no packets are shown the sender has not sent any weather packets the latest 10 day(s).
| Time | Temp. | Humidity | Pressure | Rain* | Wind** | Luminosity | Snow |
|---|---|---|---|---|---|---|---|
| 1777975102 | 22.78° C | 44% | 1005.7 hPa | 0 mm | - | - | - |
| 1777974499 | 21.11° C | 48% | 1006.2 hPa | 0 mm | - | - | - |
| 1777973898 | 19.44° C | 52% | 1006.8 hPa | 0 mm | - | - | - |
| 1777972093 | 20.56° C | 50% | 1006.7 hPa | 0 mm | - | - | - |
| 1777970290 | 17.78° C | 54% | 1007.6 hPa | 0 mm | - | - | - |
| 1777969087 | 20.56° C | 49% | 1007.1 hPa | 0 mm | - | - | - |
| 1777968485 | 15.56° C | 60% | 1008.5 hPa | 0 mm | - | - | - |
| 1777967883 | 15.56° C | 60% | 1008.7 hPa | 0 mm | - | - | - |
| 1777966680 | 16.11° C | 56% | 1008.8 hPa | 0 mm | - | - | - |
| 1777966079 | 15.56° C | 58% | 1008.8 hPa | 0 mm | - | - | - |
| 1777965477 | 14.44° C | 61% | 1009.2 hPa | 0 mm | - | - | - |
| 1777964876 | 15° C | 59% | 1009.2 hPa | 0 mm | - | - | - |
| 1777964274 | 12.78° C | 70% | 1009.9 hPa | 0 mm | - | - | - |
| 1777963672 | 13.89° C | 64% | 1009.7 hPa | 0 mm | - | - | - |
| 1777963070 | 11.67° C | 71% | 1010.4 hPa | 0 mm | - | - | - |
| 1777961868 | 10° C | 77% | 1011.2 hPa | 0 mm | - | - | - |
| 1777961326 | 8.89° C | 80% | 1011.5 hPa | 0 mm | - | - | - |
| 1777960722 | 7.78° C | 83% | 1012 hPa | 0 mm | - | - | - |
| 1777960121 | 7.78° C | 83% | 1011.8 hPa | 0 mm | - | - | - |
| 1777959519 | 8.33° C | 84% | 1011.7 hPa | 0 mm | - | - | - |
| 1777958918 | 8.33° C | 84% | 1011.7 hPa | 0 mm | - | - | - |
| 1777958315 | 7.78° C | 86% | 1011.8 hPa | 0 mm | - | - | - |
| 1777957714 | 7.22° C | 86% | 1011.9 hPa | 0 mm | - | - | - |
| 1777957112 | 7.22° C | 87% | 1012 hPa | 0 mm | - | - | - |
| 1777956510 | 6.67° C | 88% | 1012.2 hPa | 0 mm | - | - | - |
* Rain latest hour (hover to see other rain measurements)
** Current wind speed in m/s (hover to see current wind gust speed)